{"data":{"norad_id":58299,"intl_designator":"2023-174AV","name":"AETHER-2","alt_names":[],"object_type":"PAYLOAD","status":"ACTIVE","operator":null,"country":"CA","launch_date":"2023-11-11","launch_site_code":"AFWTR","launch_vehicle":null,"mission":null,"orbit_class":"UNKNOWN","rcs_meters":null,"size_class":null,"mass_kg":null,"dimensions":null,"purposes":[],"wikipedia_slug":null,"has_3d_model":false,"image_url":null,"decayed_at":null,"tle_current":{"epoch":"2026-05-25T04:16:33.282336Z","epoch_age_seconds":52858,"freshness":"FRESH","line1":"1 58299U 23174AV  26145.17816299  .00005841  00000+0  17854-3 0  9996","line2":"2 58299  97.3899 228.4111 0006089 220.9720 139.1066 15.34245532141707","mean_motion":15.34245532,"eccentricity":0.0006089,"inclination_deg":97.3899,"raan_deg":228.4111,"arg_perigee_deg":220.972,"mean_anomaly_deg":139.1066,"bstar":0.00017854,"rev_number":14170,"period_min":93.857206683395,"perigee_km":458.99672297614,"apogee_km":467.3280573735,"semimajor_km":6841.2993901748,"source":"CELESTRAK","updated_at":"2026-05-25T13:38:00.647053Z"}}}